Wind_Speed
17 17 17 17 17 17 18 18 18 18 19 21 23 25 26 27 28 30 30 30 29 29 27 27 27 27 26 26 27 27 25 24 23 23 22 23 23 23 22 22 21 22 23 23 24 24 25 26 25 25 25 26 27 28 29 29 30 31 31 32 32 32 32 32 31 30 32 34 34 36 38 40 41 42 42 42 42 41 40 40 41 40 39 40 41
18 18 18 18 17 17 17 18 19 21 21 22 25 28 29 30 31 33 34 34 33 32 31 30 29 29 30 30 29 29 28 27 26 25 25 25 26 25 24 23 23 23 24 25 25 25 27 28 29 28 28 28 29 30 31 32 32 32 33 33 33 33 33 33 33 32 33 34 35 37 38 39 41 43 44 44 44 44 43 42 42 42 42 43 43
19 19 18 17 16 16 16 18 20 20 20 22 26 28 29 30 32 34 36 37 37 35 35 34 32 32 34 34 33 32 31 30 28 27 27 28 28 27 26 25 24 24 25 26 26 27 28 29 31 31 31 31 31 32 33 35 35 35 34 34 34 34 34 35 36 35 33 34 36 38 39 39 40 42 44 45 46 46 46 45 45 45 45 45 45
20 19 18 16 15 16 15 15 18 19 20 22 25 28 30 31 32 31 32 34 37 38 37 36 36 37 39 38 36 34 33 32 30 29 28 29 29 28 28 28 26 26 27 27 27 28 29 30 31 33 33 32 32 33 35 37 38 38 37 36 36 35 35 36 37 37 35 35 37 40 41 40 40 41 44 46 47 48 48 48 48 48 48 47 46
20 19 16 15 16 16 14 13 15 19 21 24 27 31 34 35 34 32 30 31 33 35 35 36 38 40 40 39 37 35 34 33 31 30 29 29 29 30 30 30 29 28 28 27 27 28 30 31 32 33 32 31 32 34 36 39 40 40 39 39 38 37 37 37 38 39 38 38 40 42 43 43 42 42 44 46 48 48 49 50 50 49 48 47 46
19 18 16 16 16 16 14 14 15 18 22 24 26 29 32 32 32 32 31 32 32 31 30 32 34 36 37 37 37 37 36 34 32 30 30 30 31 31 32 31 30 31 30 29 29 29 30 32 32 32 32 31 32 35 38 40 42 42 42 43 42 40 39 39 39 39 41 42 43 44 45 45 45 44 45 46 47 47 48 49 49 49 49 47 45
20 18 16 16 15 14 15 17 17 18 20 22 24 27 29 30 30 30 30 29 29 29 29 30 30 31 33 35 36 38 37 34 32 32 32 32 32 32 32 32 32 32 32 31 31 31 32 33 33 34 33 32 34 37 39 42 43 44 46 46 44 43 42 41 40 40 41 44 46 48 49 48 46 45 44 44 43 43 45 47 49 50 50 48 45
18 16 15 15 13 14 17 20 21 21 21 22 24 27 30 31 31 31 29 26 26 28 29 30 30 29 30 32 34 35 35 34 33 32 32 33 33 33 33 33 33 34 34 33 32 33 34 34 35 35 35 35 36 39 41 43 45 47 48 47 45 44 44 43 41 40 41 43 46 48 49 48 45 43 42 41 41 43 46 49 51 52 51 48 45
18 16 16 16 16 17 20 23 25 27 27 27 27 28 30 31 31 31 30 28 28 30 31 30 29 28 29 30 32 32 33 33 32 31 31 32 33 34 33 33 33 35 35 34 34 34 34 35 36 36 36 37 38 41 43 45 46 47 47 46 45 46 44 41 40 40 41 43 45 47 47 46 43 42 42 43 45 48 49 51 52 53 51 48 44
18 18 18 18 19 22 24 26 28 30 31 30 30 29 30 31 31 31 31 31 32 33 34 32 30 28 29 30 31 30 31 32 31 30 31 32 33 34 33 33 34 35 36 36 35 35 35 35 37 38 38 39 40 42 44 46 47 47 46 47 48 45 41 40 40 41 43 45 46 46 46 45 45 46 46 48 50 52 52 52 52 52 50 46 41
18 18 19 21 23 25 26 28 30 32 32 33 33 33 32 32 31 30 30 32 33 35 36 33 29 28 29 31 31 30 31 32 31 30 33 35 35 34 33 34 35 35 35 36 36 35 35 36 38 39 40 40 42 44 45 48 49 48 47 48 46 41 39 41 43 44 46 47 46 45 45 46 47 49 50 51 52 53 52 52 52 51 49 45 40
18 19 22 24 26 27 29 30 32 33 35 36 36 36 35 33 32 30 30 31 33 35 35 33 29 29 30 30 30 30 30 32 32 32 33 34 33 32 33 34 34 34 35 36 36 36 36 37 39 40 41 42 43 45 47 50 52 49 47 45 42 40 42 43 44 45 47 46 45 43 44 46 48 50 52 52 52 52 51 50 50 48 46 44 41
19 21 23 26 28 30 31 33 34 36 37 39 39 38 37 37 35 34 32 32 33 33 32 31 30 30 31 31 30 29 28 29 29 29 29 29 30 31 32 33 34 34 35 35 36 36 37 39 40 41 42 44 44 46 51 53 52 48 45 42 42 44 46 45 44 45 45 44 43 42 44 47 50 50 50 51 50 50 50 48 46 45 43 42 42
22 23 25 27 29 32 33 35 36 37 38 41 41 40 40 39 38 37 35 34 32 30 30 30 30 29 31 32 30 28 25 25 26 28 27 27 28 28 30 32 34 34 35 36 36 36 38 39 40 42 44 44 45 50 54 54 51 47 44 43 44 46 47 46 46 46 45 44 43 44 46 48 48 47 47 49 49 49 49 46 43 42 41 42 42
27 27 28 29 31 33 35 37 38 39 41 43 44 43 42 40 40 39 37 34 31 29 30 32 32 30 31 33 31 28 25 25 27 27 26 25 26 27 29 32 34 35 36 37 37 37 39 40 41 43 44 44 48 53 55 52 50 47 45 45 46 46 47 48 48 46 44 44 44 44 45 45 45 45 46 47 48 49 48 45 41 41 41 41 40
30 31 32 33 34 36 38 40 41 42 43 45 46 46 44 42 41 40 36 33 32 31 31 32 32 31 33 34 33 29 27 28 29 27 25 25 27 28 30 32 34 37 38 39 38 38 40 41 42 44 44 47 52 55 53 50 49 48 46 46 47 47 48 49 48 45 43 42 42 42 41 42 43 44 45 47 47 47 46 43 40 41 42 41 39
32 33 35 37 38 39 41 43 44 44 46 47 48 48 45 43 43 40 35 33 32 32 32 31 31 33 36 35 33 32 31 31 31 29 28 27 28 29 31 33 35 38 39 39 38 39 40 42 43 44 47 52 56 54 49 48 48 48 47 48 48 49 49 49 47 43 40 40 40 40 40 41 42 44 45 46 45 44 43 41 40 40 40 40 39
34 36 38 40 41 42 43 45 46 46 47 49 49 48 45 44 44 39 33 32 32 31 32 31 31 35 37 35 35 36 35 35 34 32 31 30 30 30 32 34 36 38 38 38 38 38 40 42 45 48 51 55 55 50 47 47 48 48 49 50 50 50 49 49 46 42 39 39 40 40 40 41 42 43 44 44 43 42 41 40 39 38 37 37 36
36 37 40 42 43 44 45 46 47 48 49 50 50 48 44 45 44 38 32 32 31 29 30 31 31 34 36 36 37 37 36 37 37 35 35 34 33 33 33 34 36 38 38 37 36 37 40 44 47 51 54 53 50 47 47 48 48 49 50 51 51 50 49 48 45 42 40 40 40 40 39 41 43 43 43 43 42 40 40 40 38 37 36 34 32
38 40 43 44 44 46 47 48 48 48 49 51 51 49 47 47 44 37 32 32 31 29 31 31 31 32 35 37 38 36 36 37 37 37 38 38 36 36 37 36 36 38 38 36 35 38 43 46 48 50 50 48 46 45 47 49 50 50 51 51 51 50 48 45 43 41 41 41 40 39 39 41 43 43 42 42 40 39 40 39 38 37 36 33 31
42 44 45 45 46 48 49 48 47 48 49 52 54 54 53 49 42 35 32 33 32 31 32 32 30 31 33 36 37 37 37 36 37 39 42 42 42 43 41 38 38 39 37 35 38 43 47 48 48 48 46 44 43 45 48 50 51 51 51 51 50 48 46 43 42 41 42 42 40 39 40 41 42 42 42 41 40 39 39 38 37 36 34 33 31
45 45 46 46 47 49 49 48 47 47 49 52 55 57 52 44 38 34 33 33 34 34 34 32 30 29 30 32 35 36 38 39 40 42 43 45 47 47 44 40 38 37 36 38 44 48 50 50 48 45 42 41 43 46 49 51 51 51 50 50 49 46 43 42 42 42 42 41 40 39 40 41 42 42 41 40 39 39 39 38 37 34 33 33 33
46 46 46 47 49 50 51 49 47 47 49 51 54 51 44 37 35 35 34 34 35 34 32 29 28 27 28 31 34 35 37 40 41 42 44 46 47 44 41 38 36 36 39 43 48 50 50 48 45 42 41 43 46 49 51 51 51 51 50 49 47 44 42 42 42 43 42 40 39 38 39 40 41 41 40 38 37 37 38 37 36 33 32 32 33
47 48 49 50 51 50 49 49 48 48 49 50 48 43 37 35 35 35 34 33 32 30 28 27 27 27 28 30 32 34 38 40 40 42 46 46 43 40 38 36 36 40 44 47 49 49 47 43 41 41 44 47 49 50 51 51 50 49 48 47 44 42 41 42 43 42 41 40 38 37 37 38 39 39 38 36 36 36 36 35 33 31 30 31 32
45 47 50 51 50 49 48 49 50 49 46 44 42 39 38 39 38 37 35 33 31 29 28 28 29 29 29 29 31 35 38 40 42 45 45 41 37 36 37 39 42 46 47 48 48 46 42 40 42 45 48 49 50 51 50 49 48 47 46 44 42 41 41 42 42 42 40 38 37 36 36 37 38 37 36 35 35 34 33 31 29 28 29 30 30
42 44 44 44 45 46 47 48 47 43 40 40 40 41 41 41 40 38 36 35 33 30 29 29 30 29 28 29 32 34 35 38 42 42 38 35 35 38 42 45 47 47 47 46 44 41 40 42 46 49 50 51 51 50 49 47 46 45 43 42 41 41 41 41 41 40 39 37 36 35 35 36 37 36 34 34 34 33 31 28 26 27 28 29 28
41 41 40 39 39 41 41 41 38 36 36 38 40 42 43 41 40 39 39 38 37 34 30 29 28 28 29 30 32 33 35 39 40 38 35 36 40 44 46 47 47 46 44 43 41 41 43 46 50 52 52 51 50 49 47 44 43 42 42 41 41 41 41 40 40 39 37 36 35 35 35 36 36 34 33 33 33 31 29 26 25 26 27 28 27
40 40 39 38 37 36 36 35 34 34 36 38 39 41 41 40 40 41 41 40 37 33 30 27 28 30 33 34 33 35 37 38 38 37 39 43 45 46 46 46 45 43 42 42 43 44 47 50 53 53 52 50 49 47 44 42 41 41 40 40 40 40 40 39 38 37 36 35 34 34 35 35 35 33 32 31 31 29 27 26 25 26 26 26 26
40 40 39 38 37 36 35 35 35 36 37 37 38 40 41 42 43 41 40 39 35 30 28 30 33 35 36 35 34 36 37 38 39 42 45 47 47 47 46 45 44 42 42 43 46 48 49 51 52 51 50 49 47 44 42 39 39 39 38 38 39 39 38 38 36 35 34 34 34 34 35 34 33 31 30 30 29 28 26 26 26 26 26 26 26
40 40 40 40 39 38 38 37 36 37 37 37 39 40 40 41 40 37 34 31 28 27 30 36 37 35 34 34 36 37 39 41 44 46 47 47 47 46 45 45 44 43 44 45 47 49 51 51 50 49 48 46 44 42 39 37 36 37 37 37 38 37 37 35 34 34 33 33 33 34 34 33 31 30 29 29 28 27 26 25 25 25 25 26 25
40 41 41 42 41 40 40 39 38 38 38 39 39 39 37 35 35 34 30 27 27 32 39 39 36 34 35 37 39 41 42 44 45 46 46 45 44 44 45 45 44 45 45 46 48 50 51 50 49 47 45 42 40 38 36 35 35 35 36 36 36 35 34 33 32 32 32 33 33 32 31 31 29 28 27 26 25 25 25 25 25 25 25 25 25
42 42 43 43 42 41 40 39 39 39 40 40 40 39 38 36 35 35 34 34 37 42 42 37 34 35 38 39 41 42 43 44 44 44 43 43 43 44 45 45 44 45 46 47 48 50 50 48 46 43 40 38 37 35 34 34 35 35 36 35 34 32 32 31 30 31 31 31 31 29 28 28 27 26 25 24 23 24 24 23 24 24 24 25 25
43 43 43 43 42 41 41 40 40 41 41 41 41 40 39 37 36 38 40 43 45 44 39 36 37 39 39 40 41 42 42 42 41 41 42 42 44 45 45 44 44 45 47 47 48 48 47 45 43 40 37 35 35 34 34 34 35 35 35 33 32 31 30 29 29 30 30 29 28 27 26 26 25 24 23 22 22 22 22 22 23 23 24 24 25
44 44 43 42 41 41 42 42 42 42 42 42 42 43 42 41 41 42 43 44 43 40 37 36 38 39 40 40 40 40 40 40 40 41 43 43 44 44 42 42 44 46 47 48 47 46 44 42 39 37 35 34 34 34 35 35 35 35 34 32 31 30 29 28 28 29 28 27 26 25 24 24 23 22 22 22 21 21 21 21 22 22 23 24 25
44 44 43 42 42 42 43 43 44 44 44 44 44 45 45 45 44 44 43 42 40 38 36 36 38 40 40 41 40 40 40 40 41 42 43 42 42 42 41 43 45 46 46 46 45 43 41 38 36 35 34 34 35 35 35 35 35 34 32 31 30 29 28 28 28 28 27 26 25 24 23 23 23 22 22 22 21 21 21 21 21 22 23 24 25
43 42 42 42 43 44 45 46 46 46 45 45 44 44 43 43 42 42 42 40 38 38 38 39 40 41 41 40 40 41 41 41 42 42 42 41 42 42 43 44 45 45 44 43 41 39 37 36 35 35 35 35 35 35 35 35 34 33 31 30 29 28 27 27 27 27 27 26 25 24 24 24 23 23 22 22 21 21 21 21 21 22 23 24 24
42 42 43 44 45 47 47 47 47 46 45 44 43 42 41 41 40 40 40 39 39 40 41 41 42 41 41 41 41 40 40 41 41 41 41 41 42 43 43 44 44 43 41 39 37 37 36 36 36 36 35 35 35 35 34 34 33 32 31 29 28 27 26 26 26 26 25 25 25 25 25 24 24 24 23 22 22 21 20 21 21 22 22 23 23
43 45 46 47 47 48 49 48 47 45 44 43 42 41 41 41 40 40 41 42 43 43 43 42 41 41 40 39 40 40 41 41 41 40 41 41 42 42 42 42 41 39 37 36 36 36 36 36 36 36 35 35 35 34 34 33 32 31 30 29 27 26 25 25 25 25 24 23 23 23 24 23 23 24 23 22 22 21 20 20 21 21 22 22 22
46 46 47 48 48 48 48 46 45 44 43 42 42 42 41 41 40 41 42 43 43 42 40 39 38 38 37 38 40 40 41 40 40 40 40 41 41 41 40 38 37 35 35 35 36 36 36 36 35 35 34 34 33 33 32 31 30 29 29 27 26 25 24 24 24 24 23 23 22 22 22 21 21 22 22 22 21 21 20 20 20 20 21 21 21
47 47 47 47 46 46 45 45 44 43 42 42 42 42 41 40 40 40 40 39 38 37 36 35 35 36 38 39 39 40 40 41 40 40 39 39 38 38 36 35 34 34 35 36 36 36 36 35 34 33 33 32 32 31 30 29 28 27 26 25 24 23 23 23 23 23 23 22 22 21 21 20 20 20 21 21 21 21 20 20 20 20 20 21 21
46 46 46 46 44 44 44 44 44 43 43 43 43 42 41 40 39 38 37 35 34 34 35 35 36 37 38 38 39 39 40 39 38 38 37 36 35 34 32 33 34 34 35 35 35 35 35 34 32 32 31 30 29 28 27 27 26 25 24 23 23 23 22 22 22 22 22 22 21 21 20 20 19 19 20 20 20 20 20 20 21 20 20 20 20
45 44 44 44 43 43 44 44 44 44 44 44 44 42 41 39 38 37 36 35 35 35 36 37 37 37 37 38 38 38 37 36 35 35 34 33 32 31 31 32 33 34 35 35 35 35 34 33 31 30 29 28 27 26 25 25 24 23 22 22 22 22 22 21 21 21 21 21 21 21 21 20 20 19 19 19 19 20 20 20 20 20 20 20 20
42 42 43 43 43 43 44 44 44 44 43 43 42 40 39 37 35 34 34 34 34 35 36 38 38 37 36 36 35 34 33 33 33 32 31 31 30 31 31 32 32 33 33 34 33 32 32 32 31 30 29 27 26 25 24 23 22 22 21 21 21 21 21 21 20 21 21 21 21 21 21 21 21 20 20 20 20 20 19 19 20 20 19 19 19
41 41 42 42 42 41 42 42 41 40 39 37 35 33 32 31 30 31 32 33 35 37 39 39 37 35 34 33 32 31 31 31 31 30 30 30 30 30 30 30 30 30 30 31 32 32 32 32 31 30 28 26 25 24 22 22 21 20 20 20 20 21 21 20 21 21 21 21 21 21 21 22 22 21 21 21 20 20 20 19 19 19 19 19 19
38 39 39 39 39 39 39 39 37 35 34 32 30 28 29 30 32 34 36 38 39 39 39 37 35 33 31 30 30 30 30 30 29 29 29 29 29 28 27 26 27 27 29 30 31 32 32 32 30 28 27 26 24 23 21 21 20 20 20 20 21 21 21 21 21 21 21 21 21 22 22 22 22 22 21 21 21 21 21 20 19 19 19 19 18
35 36 37 37 37 37 37 35 34 34 34 34 33 33 34 36 36 37 38 38 38 37 35 33 31 30 29 29 29 29 29 29 29 29 28 27 26 24 23 24 24 26 28 29 30 31 32 31 28 26 25 24 24 23 21 21 21 21 21 21 21 21 21 21 21 21 21 21 21 22 22 22 23 23 23 23 23 22 22 21 21 20 20 19 19
33 33 33 33 33 33 33 33 33 35 35 36 36 36 36 36 36 35 35 34 34 33 32 30 29 28 28 28 28 28 28 28 28 27 25 23 22 21 21 22 23 24 25 27 28 28 29 28 26 24 23 23 23 23 22 22 22 22 22 22 22 22 22 22 22 22 22 22 22 22 23 23 23 24 24 24 24 24 23 23 22 21 20 20 19
29 29 29 29 30 30 31 32 33 34 34 35 35 35 34 34 33 32 32 31 31 31 30 29 28 28 28 28 28 28 28 27 26 24 21 20 19 19 19 19 20 22 23 24 24 24 25 25 24 23 22 22 22 22 23 23 23 23 23 23 23 23 23 23 23 23 23 23 23 23 23 24 24 24 25 25 25 25 24 24 23 22 21 21 20
27 27 27 27 27 28 29 29 30 31 31 32 32 32 31 31 30 30 29 28 28 27 27 27 27 27 28 28 27 27 27 26 23 21 19 18 18 17 17 18 19 20 21 21 21 21 21 22 22 21 21 21 21 22 22 23 23 24 24 23 23 23 23 23 23 23 23 23 23 23 23 24 24 24 25 25 25 25 24 24 23 22 21 21 20
26 25 25 26 26 26 26 27 27 28 28 28 29 29 29 28 28 27 27 26 25 25 25 25 26 27 27 27 26 26 25 23 20 19 18 18 17 16 16 17 18 19 19 19 19 20 20 20 20 20 20 21 21 21 21 22 22 23 23 23 23 23 22 22 22 22 22 23 23 23 23 23 23 23 22 23 23 22 22 22 21 21 20 20 20
25 25 25 25 25 25 25 26 26 26 26 27 27 27 27 27 27 26 26 26 26 26 26 26 26 27 26 26 25 24 22 19 18 18 19 18 17 16 16 16 17 18 18 18 18 19 19 19 19 20 20 20 20 21 21 21 21 22 22 22 21 21 21 21 21 22 22 22 23 22 22 21 20 19 18 18 18 18 17 17 18 18 18 18 18
Wind_Direction
256 255 252 252 253 257 263 269 277 284 287 291 296 299 298 297 298 298 296 294 293 293 296 296 292 288 287 287 288 290 293 293 292 291 289 289 291 290 289 291 295 297 298 299 300 298 295 293 296 301 307 313 318 320 321 321 319 316 313 310 307 303 299 297 295 294 294 294 295 295 294 295 295 294 294 294 295 296 296 296 297 297 297 297 296
254 253 252 252 256 265 278 289 294 289 285 290 299 303 301 298 298 297 296 296 294 293 293 293 291 288 286 284 285 288 290 290 288 288 289 290 290 289 288 290 292 295 297 297 299 299 296 293 291 293 298 305 312 316 318 319 320 318 315 312 308 303 298 294 292 291 292 293 294 294 295 295 295 294 294 294 294 295 296 296 296 295 294 294 294
249 251 253 258 268 281 293 302 302 297 291 294 302 305 304 301 300 297 296 295 293 292 290 288 287 288 288 285 285 288 289 288 286 285 286 289 288 285 284 286 289 292 294 295 296 297 296 294 292 291 293 297 304 311 314 317 320 319 316 313 309 304 299 294 290 289 289 291 292 292 293 294 293 292 292 291 292 293 293 294 293 293 292 292 291
247 252 259 272 285 292 297 302 305 307 306 305 308 308 305 302 299 298 299 297 294 293 290 286 287 290 290 286 285 287 289 287 285 284 285 287 285 281 281 285 288 290 291 293 293 294 295 294 294 293 293 294 300 306 311 315 318 318 316 314 310 306 301 295 290 287 287 288 291 291 290 290 289 289 288 288 289 290 291 291 291 291 291 290 289
252 260 273 288 295 294 295 297 299 304 307 309 311 309 305 303 300 299 302 304 304 302 296 290 289 290 290 286 282 286 289 287 285 284 284 284 282 281 282 285 288 290 290 290 291 292 293 294 295 295 294 294 298 304 308 312 314 316 316 314 312 308 304 298 292 288 285 286 289 291 290 289 287 287 286 286 287 288 288 289 289 289 289 288 288
264 274 285 293 295 295 295 290 291 302 308 311 314 313 313 315 312 308 305 304 306 308 305 301 295 292 291 288 285 287 287 285 284 284 283 282 281 281 283 286 289 291 291 291 291 292 293 295 297 297 295 294 297 303 306 309 312 314 314 313 310 308 305 300 294 289 286 286 288 290 291 291 289 288 286 285 286 287 288 288 288 289 288 287 286
274 281 288 291 291 290 289 287 295 312 319 319 322 322 322 324 322 317 312 306 305 308 309 309 304 297 295 293 291 290 286 283 283 283 281 281 281 282 285 286 290 293 293 292 293 295 297 299 299 299 296 295 297 302 305 308 311 313 313 311 310 308 305 300 295 290 288 287 288 289 290 292 292 290 287 286 287 288 289 289 289 289 288 287 286
278 285 291 292 287 282 285 293 304 316 319 320 323 323 323 323 320 317 313 307 307 309 309 309 307 302 298 296 294 293 289 284 282 280 279 279 281 284 286 287 291 295 294 293 294 295 297 298 299 298 296 294 297 301 304 307 311 312 312 310 310 308 305 300 295 292 290 290 290 291 292 294 294 291 288 288 289 291 293 292 290 289 288 288 287
281 289 297 296 291 289 293 303 310 312 314 317 319 319 320 320 319 317 313 308 307 309 309 310 309 304 299 296 294 294 292 287 282 278 277 279 283 285 285 287 291 294 293 292 292 293 295 297 298 297 295 294 297 301 304 308 311 312 311 309 308 306 302 298 297 296 295 295 295 295 295 295 293 290 288 290 292 295 295 293 290 288 288 288 286
286 293 299 299 298 298 300 305 307 308 312 316 317 317 318 318 318 316 314 310 307 306 307 308 307 303 299 295 293 293 291 285 279 276 275 278 285 287 285 287 291 292 291 290 290 290 293 295 295 294 293 294 296 300 304 309 312 311 308 306 306 303 299 297 299 299 298 298 298 296 294 292 292 292 291 292 294 295 295 292 289 288 289 289 287
289 295 299 299 300 300 301 302 302 303 308 313 316 318 319 319 318 314 310 306 302 300 301 301 300 299 298 296 294 293 290 283 278 276 275 278 284 287 286 288 292 292 290 289 288 289 290 291 291 291 292 293 295 299 306 310 310 309 307 305 303 301 299 300 300 299 298 298 297 295 292 290 292 294 295 294 294 294 293 291 290 289 290 291 287
292 297 299 302 302 302 302 302 301 302 307 312 315 317 318 318 317 312 307 302 297 295 297 296 293 296 298 296 294 291 286 281 279 279 278 279 283 287 289 292 294 292 289 287 286 287 288 288 289 289 291 293 296 301 307 309 308 307 306 303 301 299 300 301 300 299 298 298 298 295 292 291 293 296 296 295 294 293 292 292 292 292 292 291 284
294 299 303 306 307 306 305 303 301 302 307 311 314 315 315 315 314 310 306 302 295 292 294 292 289 293 297 296 291 284 278 276 278 279 280 282 286 291 294 296 296 293 291 287 285 285 285 287 288 289 290 293 298 304 308 307 306 306 304 301 299 299 301 301 301 300 298 296 296 294 292 294 296 296 296 295 294 294 293 293 293 292 290 286 281
292 297 302 306 309 308 306 303 301 301 306 310 312 312 312 312 312 310 307 301 294 288 288 289 288 290 294 293 287 277 271 272 276 278 281 286 289 293 296 298 298 295 292 289 286 284 284 286 287 288 290 295 301 305 307 306 306 305 302 299 299 300 302 302 303 302 297 295 295 294 295 297 297 296 295 295 295 294 294 294 292 289 285 282 280
291 293 298 303 306 308 308 305 301 301 304 308 310 309 309 309 310 309 305 300 294 287 286 289 290 289 291 290 283 271 265 269 274 275 280 285 287 290 294 297 297 295 293 290 287 285 284 284 284 286 291 297 302 305 306 305 304 303 301 300 301 302 303 303 303 302 299 296 295 295 297 297 296 296 296 295 295 295 295 294 290 284 281 281 282
290 292 295 299 303 306 307 305 302 301 303 306 307 307 307 307 308 307 303 298 294 289 287 290 290 289 290 288 280 270 262 263 268 270 274 279 285 289 293 294 294 293 293 291 287 284 283 282 284 288 293 299 303 305 305 303 302 302 302 303 303 303 303 303 303 302 299 296 296 297 298 298 297 298 297 297 297 296 295 293 289 283 281 281 282
289 291 294 298 301 302 304 303 302 301 302 304 305 305 305 306 306 304 298 294 291 289 288 288 288 290 290 284 276 269 262 259 263 266 269 276 284 289 291 293 293 293 292 289 285 283 283 285 287 291 295 300 303 304 303 301 301 302 303 304 303 303 303 303 303 301 297 296 297 299 300 299 298 298 299 298 298 296 294 293 290 287 284 283 283
287 290 293 296 299 300 301 301 299 299 300 302 303 303 302 303 304 301 294 290 290 290 291 291 290 292 289 279 269 267 263 258 259 262 266 273 283 288 290 293 294 293 291 287 284 284 287 289 291 293 296 300 302 302 301 301 302 303 303 303 303 303 303 303 302 299 297 296 297 298 299 300 299 299 300 300 299 297 295 294 293 291 287 285 285
285 289 292 295 297 298 298 298 298 299 299 300 302 302 299 300 300 297 290 288 289 291 293 293 293 291 283 270 263 263 262 259 259 261 264 269 277 285 290 293 294 293 289 285 285 288 292 294 294 295 297 299 300 301 301 302 302 303 303 303 303 303 303 302 301 299 297 297 298 297 297 298 299 300 300 300 300 299 298 298 297 294 291 289 288
285 289 291 293 295 296 296 296 297 298 298 298 300 300 299 299 297 293 288 288 289 291 291 291 290 287 277 267 262 262 261 260 262 266 266 266 272 282 288 291 293 292 288 285 288 294 297 298 297 297 298 299 299 300 301 302 303 303 303 303 303 303 302 300 299 297 298 299 299 297 296 297 299 300 299 299 299 299 298 298 298 296 294 293 291
286 288 289 290 292 293 295 296 296 296 298 298 298 299 299 297 292 288 288 289 290 290 289 287 285 283 276 269 267 267 264 265 269 270 266 265 271 278 284 289 292 289 285 286 293 299 302 302 300 299 298 298 300 301 302 303 303 303 303 303 302 302 300 298 296 297 299 301 299 296 295 296 299 300 300 299 299 299 298 298 298 298 296 294 292
286 286 287 288 288 291 294 295 294 296 298 298 297 298 297 291 286 286 288 290 291 290 287 284 281 278 276 273 272 272 271 272 275 274 270 269 270 273 279 286 287 286 287 293 299 304 305 303 300 299 298 299 300 302 302 303 303 303 303 302 301 300 298 296 296 298 301 301 298 295 295 296 298 300 301 300 299 299 298 298 299 298 295 293 293
283 285 287 287 286 287 290 292 293 295 297 298 297 295 291 286 286 288 290 292 293 289 285 281 279 280 282 279 275 275 277 276 275 276 278 277 274 275 279 282 284 288 296 301 304 304 302 300 299 299 299 300 302 302 302 303 303 302 301 300 300 299 297 296 298 300 301 301 298 296 295 295 298 300 301 302 301 299 297 296 297 296 293 292 294
282 284 285 285 285 286 287 290 293 295 296 296 295 292 288 287 288 290 291 293 292 288 285 283 284 287 286 280 277 280 282 278 276 280 286 285 282 280 281 283 291 299 303 304 303 301 299 297 297 298 300 302 302 302 302 302 302 300 299 299 298 297 297 298 299 301 301 300 299 297 295 295 298 300 302 303 302 299 296 294 294 293 291 292 296
283 283 283 284 286 287 287 289 292 293 293 293 292 291 290 290 291 292 292 292 290 287 285 285 287 289 285 280 282 286 285 282 282 286 288 286 283 283 288 295 301 305 304 302 299 297 296 296 297 300 302 302 302 302 302 302 300 299 298 298 297 296 297 298 299 300 300 300 299 297 296 297 299 300 302 304 304 300 295 293 292 291 291 294 298
282 283 284 286 288 289 288 288 289 289 290 290 291 290 290 291 293 293 292 292 291 289 288 287 288 288 285 284 287 288 288 288 288 286 284 284 288 294 299 302 303 302 300 298 296 295 295 296 299 302 303 302 302 302 302 301 299 298 297 297 296 297 297 298 299 300 300 299 299 297 297 297 299 300 301 304 305 301 295 292 291 290 293 297 300
281 282 285 289 290 291 290 288 286 285 286 287 287 288 290 291 293 293 292 291 291 291 290 289 287 286 286 287 289 289 289 288 286 284 285 292 298 301 301 301 300 299 298 296 296 295 295 297 300 301 301 301 302 301 300 299 297 296 297 296 297 297 298 299 299 299 299 299 298 298 297 297 299 300 301 304 305 302 295 292 291 292 296 299 300
279 281 285 289 290 289 288 285 282 282 283 284 285 287 289 290 291 292 290 288 287 287 287 286 287 289 290 289 287 285 283 281 283 286 291 295 298 298 298 298 298 298 296 296 295 294 295 298 300 301 301 301 301 300 299 297 296 296 296 296 297 299 299 299 299 299 300 300 300 299 298 298 300 302 302 303 303 300 295 292 292 295 298 299 300
278 281 284 286 286 285 283 281 280 281 282 284 286 287 289 290 290 289 286 283 281 280 281 287 292 294 293 291 285 280 278 280 285 291 294 295 296 297 297 297 297 295 294 294 294 295 296 298 300 301 301 301 299 298 297 296 295 295 296 297 298 299 300 300 301 301 302 302 301 300 299 300 302 303 301 300 299 297 295 293 294 297 299 299 301
278 281 283 284 283 283 281 280 281 282 283 285 287 289 293 292 288 283 279 275 274 279 287 293 295 293 291 288 283 279 280 283 288 292 294 295 296 296 296 296 294 293 292 292 294 296 299 300 301 301 300 300 298 297 296 295 294 295 296 297 299 300 300 302 303 304 305 304 302 300 300 302 304 303 300 297 295 295 295 294 295 297 298 300 303
278 280 282 282 282 282 281 282 283 283 284 286 287 290 293 291 285 281 276 270 275 290 297 296 293 289 287 285 282 282 284 287 290 292 293 293 294 294 294 293 292 292 292 293 295 298 300 301 301 300 299 298 297 296 296 295 295 296 297 298 300 301 302 303 305 306 306 304 302 301 301 302 303 301 298 297 294 293 293 293 295 297 299 301 306
279 280 281 281 281 281 282 282 283 283 285 286 286 287 288 285 282 284 281 277 283 294 298 292 286 284 283 283 283 284 287 289 290 290 290 290 291 291 291 292 293 294 294 295 297 299 300 300 300 298 297 296 295 295 295 296 296 297 298 299 301 301 302 304 305 306 307 305 302 300 300 302 302 299 297 296 294 293 292 293 295 298 300 305 310
279 280 280 280 281 281 282 282 283 283 284 285 286 287 286 283 282 285 285 283 287 292 292 287 283 282 282 283 285 286 288 289 288 288 288 289 289 289 290 293 294 294 294 296 298 299 299 299 297 295 293 293 293 294 295 296 297 298 299 300 301 301 302 303 304 306 307 305 302 299 300 302 301 299 298 297 296 295 294 295 297 300 303 308 312
279 279 280 280 281 281 282 282 282 283 283 285 286 287 287 286 286 287 287 287 288 289 285 282 282 283 284 286 287 288 288 288 287 287 289 289 289 290 292 293 292 292 294 296 297 298 297 296 294 292 292 292 293 294 295 296 297 298 298 299 300 300 301 303 304 304 305 304 302 300 300 302 302 302 301 300 298 297 297 297 299 302 305 309 312
279 279 280 281 281 281 282 282 282 283 284 285 286 286 286 286 287 287 288 288 288 286 283 282 283 285 287 289 289 288 288 287 288 289 289 290 291 292 292 292 292 293 295 296 296 296 295 292 290 291 292 293 294 295 296 297 297 297 298 299 299 299 300 302 302 302 302 302 301 298 298 300 303 303 303 300 299 299 299 300 302 304 306 309 311
279 280 280 280 281 282 282 283 284 285 286 287 287 286 286 286 287 287 286 285 285 285 285 286 287 288 288 288 288 287 287 287 288 289 289 290 291 292 292 292 293 294 295 295 295 294 292 291 291 293 294 295 296 296 296 296 297 297 298 298 297 298 300 300 300 300 299 299 298 296 296 297 300 301 301 299 297 297 299 301 303 304 306 309 311
279 279 280 280 281 282 284 285 286 287 287 287 286 287 287 286 286 285 283 282 283 285 287 287 287 287 287 286 286 286 286 286 287 288 289 291 292 292 293 293 293 293 293 293 292 291 291 292 294 295 295 296 296 297 296 296 297 297 297 296 296 297 298 298 298 298 297 297 296 295 294 295 296 297 297 296 295 296 297 300 302 304 306 309 312
279 280 281 282 283 284 284 285 286 286 286 286 286 286 286 286 285 283 282 283 284 286 286 286 286 285 284 284 284 285 286 287 288 289 290 291 291 292 291 291 291 291 291 291 291 292 293 295 296 297 297 297 297 297 297 296 296 296 295 294 294 295 295 296 296 297 297 296 295 295 295 296 295 294 293 293 294 295 297 299 302 304 307 310 311
280 281 282 283 284 284 284 284 285 286 286 286 287 287 286 286 285 284 284 285 285 285 285 284 284 284 284 284 285 286 287 287 288 289 290 290 290 289 289 289 289 289 289 291 292 294 296 297 297 298 298 297 297 297 296 296 295 293 292 292 292 293 294 295 295 296 296 297 296 296 297 297 296 294 292 291 293 295 296 298 302 304 307 310 311
281 282 282 283 283 283 284 285 286 287 286 286 286 285 285 285 284 284 284 284 284 284 284 283 283 284 285 285 286 286 287 288 288 289 288 288 287 287 287 287 287 288 290 293 295 296 297 297 297 297 297 297 297 296 296 295 293 291 291 291 292 293 294 295 295 295 296 296 296 296 297 298 297 296 294 293 293 294 295 297 300 303 305 309 311
281 281 282 283 284 284 285 286 287 287 286 285 285 285 285 284 283 283 283 283 283 283 283 283 284 285 286 285 285 285 286 286 287 286 286 286 286 286 286 287 289 292 294 295 296 296 297 297 297 297 297 297 298 297 296 295 293 292 292 293 293 294 294 294 294 294 294 294 295 295 296 297 297 297 297 296 295 294 294 295 297 300 303 306 309
282 282 283 284 284 284 284 285 285 285 285 285 286 286 286 285 283 282 283 283 283 283 283 284 285 286 285 285 284 284 284 284 284 284 285 285 285 286 288 290 293 295 296 296 297 297 298 299 299 299 299 300 300 299 297 296 295 295 294 294 293 293 293 293 292 291 291 292 292 292 293 294 295 296 297 297 297 297 296 295 295 298 300 302 305
281 282 282 282 282 282 282 282 282 283 284 285 286 285 284 283 282 282 283 284 284 285 286 287 288 287 286 284 283 282 282 283 283 284 285 285 286 288 292 294 296 296 296 296 298 299 301 301 301 301 302 303 302 301 299 298 297 295 294 293 292 291 291 290 289 289 289 289 289 289 289 291 292 292 294 295 296 296 297 296 296 297 298 300 302
280 280 280 280 281 281 281 281 281 282 284 284 284 283 281 281 282 284 285 287 288 289 289 290 289 288 285 283 282 282 283 283 284 284 285 286 289 292 295 296 295 295 296 298 300 302 302 302 301 301 302 303 303 302 300 298 296 294 293 292 291 290 290 289 288 287 287 286 286 286 287 288 289 290 291 292 292 293 294 295 296 297 298 299 300
279 279 279 280 281 281 280 279 280 281 280 279 278 279 281 283 285 285 286 287 289 289 289 288 287 285 283 282 282 282 282 283 284 285 287 289 292 294 295 295 296 298 299 301 301 302 301 301 300 300 300 301 301 300 299 297 296 295 293 292 291 290 290 289 288 287 286 285 285 285 286 286 287 288 289 289 290 291 292 293 294 295 296 297 298
278 279 279 280 280 279 278 278 279 278 276 275 276 279 283 284 284 284 285 286 286 286 285 284 283 281 281 281 281 281 282 283 285 287 289 292 293 293 293 296 299 301 301 301 302 302 302 302 301 299 297 297 297 297 296 296 296 295 294 293 292 291 290 290 288 288 287 286 285 285 285 286 287 288 288 288 289 289 290 291 291 292 293 294 295
279 280 281 281 280 279 278 279 279 278 277 277 279 281 283 283 283 284 284 284 283 282 280 280 279 278 278 278 279 280 282 285 287 289 290 290 289 291 295 300 303 304 303 303 304 305 306 307 305 301 297 294 293 294 294 294 294 294 294 293 292 291 291 291 290 289 288 287 286 286 286 286 286 287 287 288 288 288 288 288 288 289 289 290 291
281 282 283 283 281 280 279 279 278 278 278 278 279 281 282 282 283 283 283 282 280 277 276 276 276 276 277 278 280 282 284 286 287 287 285 284 286 292 299 304 306 306 307 309 311 312 313 312 310 305 300 296 293 293 293 293 293 293 293 293 292 292 291 290 290 289 288 288 287 287 287 287 286 286 286 286 286 285 285 285 285 285 285 285 286
284 284 284 283 282 281 280 278 277 277 277 277 278 278 279 279 281 282 283 283 281 278 277 276 277 278 279 280 281 283 284 285 284 280 277 278 284 291 298 303 306 308 311 315 318 319 319 317 313 308 302 298 295 294 293 292 293 293 293 293 292 291 291 290 290 290 290 290 290 290 289 288 287 286 285 285 284 284 283 283 282 281 280 279 279
283 283 283 282 280 279 277 276 275 275 274 274 274 275 276 278 280 281 283 283 283 281 280 279 279 279 279 280 282 283 283 281 277 273 274 277 281 286 293 300 304 307 312 317 320 323 324 322 317 311 305 300 297 296 294 293 293 293 293 292 292 291 291 292 292 293 294 294 293 292 290 288 286 285 284 283 283 283 282 281 280 278 275 274 273
279 279 278 277 276 275 274 273 271 271 271 271 273 274 277 279 280 281 282 283 282 282 281 280 280 280 281 282 282 281 277 272 269 270 274 276 277 281 287 294 298 303 308 314 318 321 323 323 321 317 311 305 301 298 296 295 294 294 293 293 293 292 293 295 296 297 298 297 295 293 290 286 284 283 282 281 282 283 282 281 280 278 274 270 268
Height
5900 5899 5899 5899 5899 5899 5899 5900 5901 5901 5900 5900 5899 5899 5898 5897 5897 5895 5894 5893 5892 5891 5890 5889 5888 5886 5886 5885 5883 5882 5882 5880 5879 5878 5878 5877 5876 5875 5874 5872 5871 5870 5870 5869 5868 5867 5865 5864 5863 5861 5859 5857 5856 5854 5853 5851 5849 5847 5845 5843 5841 5839 5838 5836 5835 5834 5832 5830 5829 5827 5825 5823 5821 5819 5818 5817 5815 5814 5814 5813 5812 5812 5811 5810 5809
5897 5896 5896 5896 5897 5898 5899 5900 5900 5899 5898 5897 5896 5896 5895 5894 5893 5892 5891 5890 5889 5888 5887 5885 5884 5882 5881 5881 5880 5879 5878 5877 5876 5875 5874 5873 5873 5871 5870 5869 5867 5866 5866 5865 5865 5863 5862 5860 5859 5858 5856 5855 5853 5852 5850 5848 5846 5844 5842 5840 5837 5835 5834 5832 5831 5830 5828 5826 5825 5823 5822 5820 5818 5815 5813 5812 5811 5809 5809 5808 5807 5806 5806 5805 5803
5894 5894 5894 5895 5897 5899 5899 5897 5896 5895 5895 5894 5893 5892 5891 5890 5889 5888 5887 5886 5885 5884 5882 5881 5880 5879 5877 5876 5876 5875 5874 5873 5872 5871 5870 5869 5868 5868 5866 5865 5864 5863 5862 5862 5861 5860 5858 5857 5855 5854 5853 5851 5850 5848 5846 5844 5842 5840 5838 5836 5834 5831 5829 5828 5826 5825 5824 5822 5820 5818 5818 5817 5815 5812 5809 5807 5806 5804 5803 5803 5801 5800 5799 5798 5798
5892 5892 5894 5896 5897 5897 5896 5894 5892 5891 5892 5891 5890 5889 5887 5886 5885 5884 5883 5881 5880 5879 5878 5876 5875 5874 5873 5872 5872 5871 5870 5869 5868 5867 5867 5865 5864 5863 5862 5861 5861 5860 5859 5858 5857 5856 5855 5853 5852 5850 5849 5848 5846 5844 5842 5840 5838 5836 5834 5832 5830 5827 5825 5823 5822 5820 5819 5818 5815 5813 5812 5812 5811 5808 5805 5802 5801 5800 5798 5797 5796 5795 5793 5792 5791
5891 5892 5894 5895 5894 5893 5891 5890 5889 5889 5890 5890 5888 5885 5883 5883 5882 5880 5879 5878 5876 5874 5873 5872 5871 5869 5868 5867 5866 5866 5865 5864 5863 5863 5862 5861 5860 5859 5858 5858 5857 5856 5855 5854 5853 5851 5850 5849 5848 5847 5845 5844 5842 5840 5838 5836 5834 5832 5830 5827 5825 5823 5821 5818 5816 5815 5814 5813 5811 5808 5807 5806 5805 5804 5801 5797 5795 5794 5793 5791 5790 5789 5788 5786 5785
5890 5891 5892 5892 5890 5888 5887 5887 5887 5888 5888 5888 5886 5883 5881 5880 5879 5877 5875 5873 5872 5870 5868 5867 5865 5864 5863 5862 5861 5861 5860 5859 5859 5858 5857 5857 5856 5855 5854 5854 5853 5852 5851 5850 5848 5847 5846 5845 5843 5842 5841 5839 5838 5836 5833 5832 5829 5827 5825 5823 5820 5818 5815 5813 5811 5810 5808 5807 5806 5804 5801 5800 5799 5798 5795 5792 5790 5789 5786 5785 5783 5782 5781 5780 5779
5888 5889 5889 5888 5886 5885 5883 5883 5885 5887 5887 5885 5884 5881 5879 5877 5875 5873 5871 5870 5868 5867 5865 5863 5861 5860 5859 5858 5856 5855 5855 5854 5854 5853 5853 5852 5852 5851 5850 5850 5849 5848 5846 5845 5844 5842 5841 5840 5839 5837 5836 5835 5833 5831 5829 5827 5824 5822 5820 5818 5815 5813 5810 5808 5805 5804 5802 5801 5799 5798 5796 5795 5793 5791 5788 5786 5784 5783 5781 5779 5778 5776 5774 5773 5772
5885 5886 5885 5884 5883 5882 5880 5880 5882 5884 5884 5883 5882 5879 5877 5875 5872 5870 5868 5867 5865 5864 5862 5861 5858 5856 5855 5853 5852 5850 5850 5850 5849 5848 5848 5848 5847 5847 5846 5845 5844 5843 5842 5841 5839 5838 5837 5836 5834 5833 5831 5830 5828 5826 5824 5822 5820 5818 5815 5813 5810 5808 5805 5802 5800 5798 5796 5794 5793 5791 5790 5788 5787 5784 5782 5780 5779 5777 5775 5772 5771 5769 5766 5765 5765
5882 5882 5882 5881 5880 5879 5879 5878 5878 5878 5879 5880 5879 5877 5874 5872 5869 5867 5865 5864 5862 5860 5859 5857 5855 5853 5851 5849 5847 5846 5846 5845 5844 5844 5844 5843 5843 5842 5842 5841 5840 5839 5837 5836 5835 5833 5832 5831 5830 5828 5827 5825 5824 5821 5819 5817 5815 5813 5810 5808 5805 5803 5800 5797 5795 5793 5791 5789 5788 5786 5784 5782 5780 5778 5776 5774 5772 5770 5768 5766 5763 5761 5759 5759 5758
5879 5879 5879 5878 5878 5877 5877 5876 5875 5873 5874 5875 5875 5873 5871 5869 5866 5864 5862 5860 5859 5856 5854 5853 5851 5848 5846 5845 5843 5842 5842 5840 5839 5839 5839 5839 5838 5838 5837 5837 5836 5835 5833 5832 5830 5829 5828 5827 5825 5823 5822 5821 5819 5817 5815 5812 5810 5808 5805 5802 5800 5797 5795 5793 5791 5788 5786 5784 5783 5781 5779 5777 5774 5771 5770 5768 5765 5763 5760 5758 5756 5754 5752 5751 5752
5876 5876 5876 5875 5875 5874 5873 5873 5871 5870 5870 5870 5870 5868 5867 5865 5863 5862 5859 5857 5855 5852 5850 5849 5847 5844 5842 5841 5839 5838 5838 5836 5835 5835 5835 5834 5833 5833 5833 5832 5832 5830 5829 5827 5826 5824 5823 5822 5820 5818 5817 5816 5815 5813 5810 5807 5804 5803 5800 5797 5794 5792 5790 5788 5786 5783 5781 5779 5777 5775 5773 5771 5768 5765 5763 5761 5758 5755 5753 5750 5748 5746 5745 5744 5744
5874 5873 5873 5872 5871 5870 5870 5869 5868 5866 5866 5865 5865 5863 5862 5860 5859 5857 5855 5853 5851 5848 5846 5844 5843 5841 5838 5836 5835 5834 5833 5832 5831 5830 5830 5829 5829 5828 5828 5828 5827 5826 5824 5823 5821 5820 5818 5817 5815 5814 5813 5812 5810 5808 5805 5802 5798 5797 5795 5792 5789 5787 5785 5783 5780 5778 5775 5773 5771 5769 5766 5764 5762 5759 5756 5753 5751 5748 5745 5742 5740 5739 5738 5736 5736
5870 5870 5869 5868 5868 5867 5866 5865 5863 5862 5862 5861 5860 5858 5857 5855 5853 5851 5850 5848 5845 5843 5841 5839 5838 5836 5834 5832 5831 5830 5829 5828 5826 5825 5825 5825 5824 5824 5823 5823 5822 5821 5820 5818 5816 5815 5813 5812 5810 5809 5808 5807 5805 5802 5799 5796 5794 5791 5789 5786 5784 5781 5778 5776 5774 5772 5769 5767 5765 5763 5759 5757 5755 5753 5749 5746 5743 5741 5738 5736 5733 5732 5731 5729 5728
5867 5866 5865 5865 5864 5863 5863 5861 5860 5858 5858 5856 5855 5854 5852 5850 5848 5846 5844 5842 5839 5838 5836 5834 5832 5831 5829 5828 5826 5826 5825 5824 5822 5821 5821 5821 5820 5819 5819 5819 5818 5816 5814 5813 5812 5810 5808 5807 5806 5804 5803 5801 5799 5796 5793 5790 5788 5786 5784 5781 5778 5775 5772 5770 5767 5765 5763 5760 5758 5756 5753 5750 5748 5746 5742 5739 5736 5733 5731 5730 5728 5725 5724 5722 5721
5863 5862 5861 5861 5860 5860 5859 5857 5856 5854 5853 5852 5850 5849 5847 5845 5843 5840 5838 5836 5833 5831 5830 5828 5827 5826 5824 5823 5822 5822 5821 5820 5819 5818 5818 5817 5816 5816 5815 5814 5813 5811 5809 5807 5806 5805 5803 5802 5800 5799 5797 5796 5793 5790 5787 5784 5782 5780 5778 5776 5772 5769 5766 5763 5761 5758 5756 5754 5752 5750 5747 5744 5741 5739 5736 5732 5729 5727 5724 5723 5721 5719 5717 5716 5715
5859 5858 5857 5856 5856 5855 5854 5853 5851 5849 5848 5847 5845 5843 5841 5839 5837 5835 5832 5830 5828 5826 5824 5824 5823 5821 5820 5819 5818 5818 5817 5816 5815 5814 5813 5813 5812 5812 5811 5809 5808 5806 5804 5802 5801 5799 5798 5796 5795 5793 5792 5790 5787 5784 5782 5779 5776 5774 5771 5769 5766 5762 5759 5757 5754 5753 5750 5747 5746 5744 5742 5738 5735 5732 5729 5726 5723 5720 5718 5716 5714 5712 5711 5710 5709
5855 5854 5853 5852 5851 5850 5849 5847 5845 5844 5843 5841 5839 5837 5835 5833 5832 5830 5827 5825 5823 5821 5820 5819 5818 5817 5816 5815 5814 5813 5812 5811 5810 5809 5809 5808 5808 5807 5806 5804 5803 5800 5798 5796 5795 5794 5793 5791 5790 5788 5786 5783 5780 5778 5775 5772 5770 5767 5765 5762 5759 5756 5753 5750 5748 5747 5744 5742 5740 5737 5735 5732 5729 5726 5723 5720 5717 5714 5712 5710 5708 5706 5705 5704 5703
5850 5849 5848 5847 5847 5845 5844 5842 5840 5838 5837 5835 5833 5831 5830 5828 5826 5825 5823 5820 5819 5817 5816 5814 5814 5812 5810 5810 5809 5808 5807 5806 5806 5805 5804 5803 5803 5802 5800 5799 5797 5795 5793 5791 5790 5789 5788 5787 5784 5782 5780 5777 5773 5771 5769 5766 5763 5761 5758 5756 5753 5750 5747 5744 5742 5741 5739 5737 5734 5731 5729 5726 5723 5720 5717 5714 5711 5708 5706 5705 5703 5701 5700 5698 5697
5846 5845 5844 5843 5842 5840 5838 5836 5834 5832 5831 5829 5827 5826 5825 5823 5821 5820 5818 5816 5814 5813 5812 5811 5809 5807 5805 5805 5804 5803 5802 5801 5800 5800 5799 5798 5798 5796 5794 5793 5791 5790 5788 5786 5785 5784 5783 5781 5779 5775 5772 5770 5767 5764 5762 5759 5757 5755 5752 5749 5746 5744 5740 5738 5736 5734 5733 5731 5728 5726 5723 5720 5717 5714 5711 5708 5706 5703 5700 5698 5697 5695 5693 5693 5692
5841 5840 5839 5838 5836 5834 5832 5830 5828 5826 5824 5822 5821 5819 5818 5817 5815 5814 5813 5811 5810 5809 5807 5805 5804 5802 5801 5799 5798 5798 5797 5796 5795 5795 5794 5793 5792 5790 5789 5787 5786 5784 5783 5781 5780 5779 5777 5775 5772 5769 5765 5763 5761 5758 5755 5753 5751 5748 5745 5742 5740 5738 5735 5732 5730 5728 5726 5724 5722 5719 5717 5714 5711 5708 5706 5703 5701 5698 5695 5693 5692 5690 5687 5687 5686
5836 5835 5833 5832 5830 5828 5826 5824 5821 5820 5818 5816 5814 5813 5811 5810 5809 5808 5807 5806 5805 5804 5802 5800 5799 5798 5796 5795 5794 5794 5793 5792 5791 5791 5789 5788 5786 5784 5783 5782 5780 5778 5777 5776 5774 5772 5770 5767 5765 5762 5759 5757 5755 5752 5749 5747 5745 5742 5739 5736 5733 5732 5729 5726 5724 5722 5720 5718 5716 5713 5711 5708 5706 5703 5700 5698 5695 5693 5690 5688 5686 5685 5683 5681 5680
5830 5829 5828 5826 5824 5822 5820 5818 5815 5813 5811 5809 5807 5805 5804 5803 5802 5802 5801 5801 5799 5798 5797 5795 5794 5793 5792 5791 5790 5790 5789 5788 5787 5786 5784 5782 5780 5779 5777 5776 5773 5772 5771 5770 5767 5765 5762 5760 5757 5755 5753 5751 5749 5746 5744 5741 5738 5735 5733 5730 5728 5725 5723 5720 5718 5716 5714 5712 5709 5707 5705 5702 5700 5697 5695 5692 5690 5688 5685 5683 5681 5680 5678 5677 5675
5824 5823 5821 5820 5818 5815 5813 5811 5809 5807 5805 5803 5801 5799 5798 5797 5797 5796 5796 5795 5794 5792 5791 5790 5789 5788 5787 5786 5786 5785 5785 5784 5782 5781 5779 5776 5774 5773 5771 5769 5767 5766 5765 5763 5760 5758 5756 5753 5751 5749 5747 5745 5743 5740 5737 5735 5732 5729 5727 5724 5722 5719 5717 5714 5712 5710 5708 5706 5704 5701 5699 5697 5694 5692 5689 5687 5685 5683 5680 5679 5677 5676 5674 5673 5671
5818 5816 5814 5812 5810 5808 5807 5805 5803 5801 5799 5797 5795 5794 5793 5792 5792 5791 5791 5790 5788 5787 5786 5785 5784 5783 5783 5782 5781 5781 5780 5779 5777 5775 5773 5770 5769 5767 5765 5763 5762 5761 5759 5757 5755 5752 5750 5748 5745 5743 5741 5739 5736 5734 5731 5728 5726 5723 5720 5718 5716 5713 5711 5709 5706 5704 5702 5700 5698 5696 5694 5691 5689 5687 5684 5682 5680 5678 5676 5674 5673 5671 5670 5669 5667
5812 5810 5808 5806 5804 5801 5800 5798 5797 5795 5793 5791 5790 5789 5788 5787 5787 5786 5785 5784 5782 5781 5781 5780 5779 5779 5778 5777 5777 5776 5775 5773 5772 5770 5767 5765 5763 5761 5760 5758 5757 5755 5753 5751 5749 5746 5744 5742 5740 5738 5735 5732 5730 5727 5724 5722 5719 5717 5714 5712 5710 5708 5706 5704 5701 5699 5697 5695 5693 5690 5688 5686 5684 5682 5680 5677 5675 5673 5671 5670 5669 5668 5666 5665 5663
5806 5804 5802 5800 5797 5795 5793 5792 5790 5788 5787 5786 5786 5784 5783 5782 5782 5780 5779 5777 5776 5775 5775 5775 5774 5773 5772 5772 5772 5771 5770 5768 5766 5765 5762 5759 5757 5756 5755 5753 5752 5749 5747 5745 5743 5741 5739 5736 5734 5731 5729 5726 5723 5721 5718 5716 5713 5711 5708 5706 5704 5703 5701 5698 5696 5694 5691 5689 5687 5685 5683 5681 5679 5677 5675 5673 5670 5668 5666 5665 5665 5664 5662 5660 5659
5800 5798 5796 5793 5790 5788 5787 5785 5784 5782 5781 5781 5780 5779 5778 5777 5776 5774 5772 5771 5770 5769 5768 5768 5768 5768 5767 5767 5766 5765 5764 5762 5761 5759 5757 5754 5752 5751 5750 5748 5746 5743 5741 5739 5737 5735 5733 5730 5728 5725 5723 5720 5717 5715 5712 5710 5707 5705 5703 5701 5699 5697 5695 5693 5691 5689 5687 5684 5682 5680 5678 5676 5674 5672 5670 5668 5666 5664 5662 5662 5661 5660 5658 5656 5655
5793 5791 5789 5786 5784 5783 5781 5779 5778 5777 5776 5776 5775 5773 5772 5771 5769 5767 5766 5764 5764 5763 5762 5762 5763 5763 5762 5761 5760 5759 5758 5756 5755 5753 5752 5750 5749 5747 5745 5742 5740 5737 5735 5733 5731 5730 5727 5724 5721 5718 5716 5714 5711 5709 5706 5704 5702 5700 5698 5696 5694 5692 5690 5688 5686 5684 5682 5680 5677 5675 5673 5671 5669 5667 5665 5664 5662 5660 5659 5658 5657 5656 5654 5652 5651
5786 5784 5782 5780 5779 5777 5776 5774 5773 5772 5772 5771 5770 5768 5766 5764 5762 5761 5759 5758 5758 5759 5758 5758 5758 5757 5756 5756 5755 5753 5752 5751 5749 5747 5746 5745 5743 5741 5739 5736 5734 5732 5730 5727 5725 5723 5721 5719 5715 5712 5709 5707 5705 5703 5701 5699 5697 5695 5693 5691 5689 5687 5685 5683 5681 5679 5676 5674 5672 5670 5668 5666 5664 5663 5661 5660 5658 5657 5656 5655 5653 5652 5650 5649 5647
5779 5777 5775 5774 5773 5772 5771 5770 5768 5768 5767 5767 5765 5763 5761 5758 5755 5754 5755 5754 5754 5755 5755 5754 5753 5752 5751 5750 5749 5747 5746 5745 5744 5742 5740 5739 5737 5734 5732 5730 5728 5726 5724 5722 5719 5717 5714 5712 5709 5706 5703 5701 5699 5697 5695 5694 5692 5690 5688 5686 5684 5682 5680 5678 5676 5674 5672 5670 5667 5665 5664 5662 5661 5659 5657 5656 5654 5653 5652 5651 5650 5648 5646 5645 5643
5771 5770 5769 5768 5767 5766 5765 5765 5764 5763 5762 5762 5761 5760 5759 5756 5752 5750 5751 5751 5750 5749 5749 5749 5748 5747 5746 5745 5744 5742 5740 5739 5738 5736 5734 5732 5730 5728 5726 5724 5722 5720 5719 5716 5714 5711 5708 5706 5703 5700 5698 5695 5693 5691 5690 5688 5686 5684 5683 5681 5679 5677 5675 5673 5671 5669 5667 5665 5663 5661 5660 5658 5657 5655 5654 5652 5651 5650 5649 5647 5646 5644 5643 5641 5640
5764 5763 5763 5762 5762 5761 5760 5760 5760 5758 5758 5757 5756 5756 5756 5754 5751 5749 5748 5747 5745 5743 5743 5743 5742 5741 5740 5739 5738 5736 5734 5733 5731 5730 5728 5726 5725 5722 5720 5718 5716 5715 5713 5710 5708 5705 5702 5700 5697 5695 5693 5691 5688 5687 5685 5683 5681 5679 5678 5676 5674 5673 5671 5669 5667 5665 5663 5661 5659 5658 5656 5655 5654 5652 5651 5649 5648 5647 5646 5644 5643 5641 5639 5638 5636
5759 5758 5757 5757 5756 5755 5755 5755 5754 5754 5753 5752 5751 5750 5750 5749 5748 5746 5745 5743 5740 5738 5737 5737 5736 5735 5734 5733 5732 5730 5728 5727 5725 5723 5722 5720 5718 5716 5714 5712 5710 5709 5706 5704 5702 5699 5697 5694 5692 5690 5688 5686 5684 5682 5680 5678 5676 5674 5673 5671 5670 5668 5667 5665 5663 5661 5660 5658 5656 5655 5653 5652 5651 5649 5648 5646 5645 5644 5643 5641 5640 5638 5636 5635 5632
5753 5752 5752 5751 5751 5750 5750 5749 5749 5748 5747 5746 5745 5745 5744 5743 5742 5740 5739 5737 5735 5734 5733 5731 5730 5729 5728 5727 5726 5724 5722 5721 5719 5717 5716 5714 5711 5710 5708 5707 5704 5702 5701 5698 5696 5694 5691 5689 5687 5685 5684 5682 5680 5678 5676 5674 5672 5670 5668 5667 5666 5664 5663 5661 5659 5658 5656 5655 5653 5652 5650 5649 5648 5646 5645 5643 5642 5641 5640 5639 5637 5635 5634 5632 5630
5747 5746 5746 5746 5745 5745 5744 5743 5743 5742 5742 5741 5741 5740 5738 5737 5735 5734 5732 5730 5729 5728 5727 5726 5725 5724 5723 5721 5719 5718 5716 5715 5713 5711 5709 5708 5706 5704 5703 5701 5698 5697 5695 5693 5690 5688 5686 5684 5682 5681 5679 5677 5675 5673 5671 5669 5667 5666 5664 5663 5662 5660 5659 5657 5656 5654 5653 5652 5650 5649 5647 5646 5645 5644 5642 5641 5640 5639 5637 5636 5635 5633 5631 5629 5627
5741 5741 5740 5740 5740 5739 5738 5737 5737 5736 5736 5736 5735 5733 5732 5731 5729 5728 5726 5725 5723 5722 5721 5720 5719 5718 5716 5714 5713 5711 5710 5708 5707 5705 5704 5702 5700 5698 5696 5694 5692 5690 5689 5687 5685 5683 5681 5679 5678 5676 5674 5672 5670 5669 5667 5665 5663 5662 5660 5659 5658 5656 5655 5654 5652 5651 5650 5648 5647 5646 5644 5643 5642 5641 5640 5639 5637 5636 5635 5634 5632 5630 5629 5627 5625
5736 5735 5735 5735 5734 5733 5732 5731 5730 5730 5729 5729 5728 5726 5725 5724 5723 5722 5720 5719 5718 5717 5715 5714 5712 5711 5709 5707 5706 5705 5704 5702 5701 5699 5698 5696 5694 5692 5690 5688 5686 5684 5683 5682 5680 5678 5676 5675 5673 5671 5670 5668 5666 5664 5662 5660 5659 5658 5656 5655 5654 5652 5651 5650 5649 5648 5646 5645 5644 5642 5641 5640 5639 5638 5637 5636 5635 5634 5633 5631 5630 5628 5626 5625 5623
5730 5730 5729 5728 5728 5727 5726 5725 5724 5723 5722 5721 5720 5719 5718 5717 5716 5715 5714 5713 5711 5710 5709 5707 5706 5704 5703 5701 5700 5699 5698 5696 5695 5694 5692 5690 5688 5686 5684 5683 5681 5679 5678 5677 5675 5673 5672 5670 5668 5666 5664 5662 5661 5659 5657 5656 5655 5653 5652 5651 5650 5649 5647 5646 5645 5644 5643 5642 5640 5639 5638 5637 5636 5635 5634 5633 5632 5631 5630 5629 5627 5626 5624 5622 5620
5724 5724 5723 5722 5721 5720 5719 5718 5717 5716 5715 5714 5713 5712 5711 5710 5709 5708 5707 5706 5704 5703 5702 5701 5699 5698 5698 5696 5694 5693 5692 5690 5689 5688 5686 5684 5683 5681 5679 5678 5676 5675 5673 5672 5670 5668 5667 5665 5663 5661 5659 5658 5656 5654 5653 5651 5650 5649 5648 5647 5646 5645 5644 5643 5642 5641 5639 5638 5637 5636 5635 5634 5633 5632 5631 5630 5629 5628 5627 5626 5625 5624 5622 5620 5618
5718 5717 5716 5715 5714 5714 5713 5712 5711 5710 5709 5708 5707 5706 5705 5704 5703 5701 5700 5699 5698 5697 5696 5695 5693 5693 5692 5690 5689 5687 5685 5684 5683 5682 5680 5679 5678 5676 5674 5673 5672 5671 5669 5667 5665 5664 5662 5660 5659 5656 5655 5653 5651 5650 5649 5647 5646 5645 5644 5643 5642 5641 5640 5639 5638 5637 5636 5635 5634 5633 5632 5631 5630 5629 5628 5627 5626 5626 5625 5624 5623 5621 5620 5618 5616
5712 5711 5710 5709 5709 5708 5706 5705 5704 5703 5702 5700 5700 5699 5698 5697 5696 5695 5694 5693 5692 5691 5690 5689 5688 5687 5686 5684 5683 5681 5679 5678 5677 5676 5675 5673 5672 5671 5670 5669 5667 5666 5664 5662 5660 5659 5657 5655 5654 5652 5650 5649 5647 5646 5645 5643 5642 5641 5640 5639 5638 5637 5636 5636 5635 5634 5633 5632 5631 5630 5629 5628 5627 5627 5626 5625 5624 5623 5622 5621 5620 5619 5618 5616 5615
5706 5705 5704 5703 5702 5701 5700 5698 5697 5696 5694 5693 5692 5692 5691 5690 5690 5689 5688 5687 5686 5685 5684 5683 5682 5681 5680 5678 5677 5676 5674 5673 5672 5671 5669 5668 5667 5667 5666 5664 5663 5661 5659 5657 5655 5653 5652 5650 5648 5647 5645 5644 5643 5642 5641 5639 5638 5637 5636 5635 5635 5634 5633 5632 5632 5631 5630 5629 5628 5627 5627 5626 5625 5624 5623 5622 5621 5620 5620 5619 5618 5617 5615 5614 5613
5700 5699 5698 5697 5696 5694 5693 5692 5691 5689 5688 5687 5686 5686 5685 5684 5684 5683 5682 5681 5680 5679 5678 5677 5676 5675 5674 5672 5671 5670 5669 5668 5667 5666 5665 5664 5663 5663 5661 5660 5658 5656 5654 5652 5650 5649 5647 5645 5644 5642 5641 5640 5639 5638 5637 5636 5635 5634 5633 5632 5631 5631 5630 5629 5628 5628 5627 5626 5625 5625 5624 5623 5622 5621 5620 5620 5619 5618 5617 5616 5615 5614 5613 5612 5611
5694 5693 5691 5690 5689 5688 5686 5685 5684 5683 5682 5682 5681 5680 5679 5679 5678 5677 5677 5676 5675 5674 5672 5671 5670 5669 5668 5667 5666 5665 5664 5663 5662 5662 5661 5660 5659 5658 5657 5655 5654 5652 5650 5648 5646 5644 5643 5641 5640 5638 5637 5636 5635 5634 5633 5632 5632 5631 5630 5629 5628 5628 5627 5626 5625 5625 5624 5623 5622 5622 5621 5620 5619 5618 5618 5617 5616 5615 5615 5614 5613 5612 5611 5610 5609
5687 5686 5684 5683 5682 5681 5680 5679 5678 5678 5677 5677 5676 5676 5675 5674 5673 5673 5671 5670 5669 5668 5667 5666 5665 5664 5663 5663 5662 5661 5660 5659 5658 5658 5657 5656 5655 5654 5653 5651 5650 5648 5646 5644 5642 5640 5639 5637 5636 5635 5634 5633 5632 5631 5630 5630 5629 5628 5627 5626 5625 5625 5624 5623 5622 5622 5621 5620 5619 5619 5618 5617 5616 5615 5614 5614 5613 5613 5612 5611 5611 5610 5609 5608 5607
5680 5679 5678 5677 5677 5676 5674 5674 5673 5673 5672 5671 5671 5671 5670 5669 5668 5667 5666 5665 5664 5663 5662 5661 5661 5660 5659 5658 5658 5657 5656 5655 5654 5654 5653 5652 5651 5650 5649 5648 5646 5644 5642 5640 5638 5637 5635 5634 5633 5632 5631 5630 5629 5628 5627 5627 5626 5625 5624 5623 5623 5622 5621 5620 5619 5619 5618 5617 5616 5616 5615 5614 5613 5612 5611 5611 5610 5609 5609 5608 5608 5607 5607 5606 5605
5675 5673 5672 5671 5671 5670 5669 5668 5668 5667 5667 5666 5666 5665 5665 5664 5663 5662 5661 5660 5659 5658 5657 5657 5656 5656 5655 5654 5653 5653 5652 5651 5650 5650 5649 5648 5647 5646 5645 5644 5643 5641 5639 5637 5635 5634 5632 5630 5629 5629 5628 5627 5626 5625 5625 5624 5623 5622 5621 5620 5620 5619 5618 5617 5616 5616 5615 5614 5613 5613 5612 5611 5610 5609 5608 5607 5607 5606 5606 5605 5605 5605 5604 5603 5603
5669 5668 5666 5665 5665 5664 5664 5663 5662 5662 5661 5661 5660 5660 5659 5659 5658 5657 5656 5655 5654 5653 5653 5652 5651 5651 5650 5650 5649 5649 5648 5647 5647 5646 5645 5645 5644 5643 5642 5641 5639 5638 5636 5634 5633 5631 5629 5627 5626 5625 5625 5624 5623 5622 5621 5621 5620 5619 5618 5617 5616 5616 5615 5614 5613 5612 5611 5611 5610 5609 5608 5607 5606 5606 5605 5604 5603 5603 5602 5602 5602 5602 5601 5601 5600
5663 5663 5662 5661 5660 5660 5659 5658 5657 5657 5657 5656 5656 5655 5654 5654 5653 5653 5652 5651 5650 5649 5648 5648 5647 5647 5646 5646 5645 5645 5644 5643 5643 5642 5642 5642 5641 5640 5639 5638 5637 5635 5634 5632 5630 5628 5627 5625 5624 5623 5622 5621 5620 5619 5618 5618 5617 5616 5615 5614 5613 5612 5612 5611 5610 5609 5608 5607 5606 5606 5605 5604 5603 5602 5601 5600 5600 5599 5599 5598 5598 5598 5598 5598 5598
5659 5658 5657 5656 5655 5655 5654 5654 5653 5652 5652 5651 5651 5650 5650 5649 5649 5649 5648 5647 5646 5645 5645 5644 5644 5643 5642 5642 5641 5641 5640 5639 5639 5639 5638 5638 5638 5637 5636 5635 5634 5633 5631 5630 5628 5626 5624 5623 5621 5620 5619 5618 5617 5616 5616 5615 5614 5613 5612 5611 5610 5609 5608 5607 5606 5606 5605 5604 5603 5602 5601 5600 5600 5599 5598 5597 5596 5596 5596 5595 5595 5595 5595 5595 5595
5654 5654 5653 5652 5651 5650 5650 5649 5648 5648 5647 5647 5646 5646 5646 5646 5645 5645 5644 5643 5642 5642 5641 5641 5640 5639 5639 5638 5637 5637 5636 5636 5636 5635 5635 5635 5634 5634 5633 5632 5631 5630 5629 5627 5626 5624 5622 5621 5619 5618 5617 5616 5615 5614 5613 5612 5611 5610 5609 5608 5607 5606 5605 5604 5603 5602 5601 5601 5600 5599 5598 5597 5597 5596 5595 5594 5594 5593 5593 5592 5592 5592 5592 5592 5592